Location: Big Spring State Park
(32.2296°N, 101.4897°W)
Time: 12:42:35
(UTC-05:00)

Envisat - Visible Passes

Search period start: 19 July 2018 00:00
Search period end: 29 July 2018 00:00
Orbit: 764 x 766 km, 98.2° (Epoch: 19 July)

Date Brightness Start Highest point End Pass type
(mag) Time Alt. Az. Time Alt. Az. Time Alt. Az.
19 Jul 5.7 22:25:25 10° WSW 22:27:38 13° W 22:29:52 10° WNW visible
20 Jul 4.7 21:46:11 10° SSW 21:50:40 32° W 21:55:10 10° NW visible
21 Jul 3.2 21:08:48 10° S 21:13:52 79° WSW 21:18:58 10° NNW visible
22 Jul 5.6 22:13:09 10° SW 22:16:23 17° W 22:19:38 10° NW visible
23 Jul 4.3 21:34:42 10° S 21:39:27 41° W 21:44:15 10° NNW visible
25 Jul 5.3 22:01:16 10° SW 22:05:08 22° W 22:09:03 10° NW visible
26 Jul 3.8 21:23:19 10° S 21:28:16 54° W 21:33:15 10° NNW visible
27 Jul 5.9 22:29:22 10° WSW 22:30:55 11° W 22:32:28 10° WNW visible
28 Jul 4.9 21:49:35 10° SSW 21:53:55 29° W 21:58:17 10° NW visible
